[Date Prev][Date Next][Thread Prev][Thread Next] - [Date Index][Thread Index][Author Index]

2 Line ISS Keps 6-12



ISS
1 25544U 98067A   05163.08079861  .00012537  00000-0  95413-4 0  6692
2 25544 051.6458 287.0816 0004193 239.2442 110.2492 15.72706256374875
----
Via the sarex mailing list at AMSAT.ORG courtesy of AMSAT-NA.
To unsubscribe, send "unsubscribe sarex" to Majordomo@amsat.org



AMSAT Top AMSAT Home